Time,TemperatureF,DewpointF,PressureIn,WindDirection,WindDirectionDegrees,WindSpeedMPH,WindSpeedGustMPH,Humidity,HourlyPrecipIn,Conditions,Clouds,dailyrainin,SoftwareType,DateUTC
2013-07-11 00:22:00,74.0,74.0,-100.00,North,-999,-999.0,-999.0,98,-99.99,,,-99.99,,2013-07-11 04:22:00,
2013-07-11 00:53:00,74.0,74.0,-100.00,SW,235,2.0,4.0,98,0.00,,,-99.99,,2013-07-11 04:53:00,
2013-07-11 01:22:00,74.0,73.0,-100.00,SSW,210,1.0,2.0,98,0.00,,,-99.99,,2013-07-11 05:22:00,
2013-07-11 02:12:00,73.0,72.0,-100.00,SW,230,1.0,3.0,98,0.00,,,-99.99,,2013-07-11 06:12:00,
2013-07-11 03:22:00,72.0,71.0,-100.00,SW,225,1.0,2.0,98,0.00,,,-99.99,,2013-07-11 07:22:00,
2013-07-11 04:12:00,72.0,71.0,-100.00,SSW,205,1.0,3.0,98,0.00,,,-99.99,,2013-07-11 08:12:00,
2013-07-11 04:22:00,72.0,71.0,-100.00,West,265,1.0,3.0,98,0.00,,,-99.99,,2013-07-11 08:22:00,
2013-07-11 04:43:00,72.0,71.0,-100.00,WSW,245,0.0,1.0,98,0.00,,,-99.99,,2013-07-11 08:43:00,
2013-07-11 05:53:00,70.0,70.0,-100.00,SW,225,1.0,2.0,98,0.00,,,-99.99,,2013-07-11 09:53:00,
2013-07-11 06:01:00,72.0,71.0,-100.00,WSW,245,1.0,4.0,98,0.00,,,-99.99,,2013-07-11 10:01:00,
2013-07-11 06:12:00,72.0,71.0,-100.00,SW,235,1.0,4.0,98,0.00,,,-99.99,,2013-07-11 10:12:00,
2013-07-11 06:22:00,72.0,72.0,-100.00,South,180,0.0,3.0,98,0.00,,,-99.99,,2013-07-11 10:22:00,
2013-07-11 07:02:00,72.0,72.0,-100.00,NNW,335,1.0,2.0,98,0.00,,,-99.99,,2013-07-11 11:02:00,
2013-07-11 08:01:00,73.0,73.0,-100.00,WSW,240,0.0,1.0,98,0.00,,,-99.99,,2013-07-11 12:01:00,
2013-07-11 08:43:00,75.0,74.0,-100.00,WSW,240,0.0,2.0,98,0.00,,,-99.99,,2013-07-11 12:43:00,
2013-07-11 09:02:00,76.0,75.0,-100.00,South,180,1.0,3.0,98,0.00,,,-99.99,,2013-07-11 13:02:00,
2013-07-11 10:15:00,74.0,74.0,-100.00,SW,235,1.0,3.0,98,0.00,,,-99.99,,2013-07-11 14:15:00,
2013-07-11 10:35:00,75.0,74.0,-100.00,SW,230,1.0,3.0,98,0.00,,,-99.99,,2013-07-11 14:35:00,
2013-07-11 11:14:00,74.0,74.0,-100.00,WSW,240,1.0,3.0,98,0.00,,,-99.99,,2013-07-11 15:14:00,
2013-07-11 11:25:00,75.0,74.0,-100.00,West,265,1.0,3.0,98,0.00,,,-99.99,,2013-07-11 15:25:00,
2013-07-11 11:38:00,74.0,74.0,-100.00,SW,230,1.0,3.0,98,0.00,,,-99.99,,2013-07-11 15:38:00,
2013-07-11 11:47:00,76.0,75.0,-100.00,SSW,210,0.0,3.0,98,0.00,,,-99.99,,2013-07-11 15:47:00,
2013-07-11 12:06:00,75.0,75.0,-100.00,WSW,245,1.0,2.0,98,0.00,,,-99.99,,2013-07-11 16:06:00,
2013-07-11 12:15:00,76.0,76.0,-100.00,SW,235,4.0,4.0,98,0.00,,,-99.99,,2013-07-11 16:15:00,
2013-07-11 12:26:00,77.0,76.0,-100.00,WSW,255,1.0,7.0,96,0.00,,,-99.99,,2013-07-11 16:26:00,
2013-07-11 13:26:00,80.0,74.0,-100.00,SW,235,1.0,6.0,81,0.00,,,-99.99,,2013-07-11 17:26:00,
2013-07-11 13:53:00,81.0,74.0,-100.00,WNW,290,2.0,5.0,77,0.00,,,-99.99,,2013-07-11 17:53:00,
2013-07-11 14:15:00,82.0,73.0,-100.00,West,270,2.0,5.0,74,0.00,,,-99.99,,2013-07-11 18:15:00,
2013-07-11 14:24:00,82.0,73.0,-100.00,SW,230,2.0,5.0,73,0.00,,,-99.99,,2013-07-11 18:24:00,
2013-07-11 14:35:00,82.0,73.0,-100.00,SW,225,3.0,5.0,74,0.00,,,-99.99,,2013-07-11 18:35:00,
2013-07-11 15:05:00,82.0,73.0,-100.00,South,180,0.0,3.0,73,0.00,,,-99.99,,2013-07-11 19:05:00,
2013-07-11 15:13:00,82.0,72.0,-100.00,SSE,155,1.0,3.0,70,0.00,,,-99.99,,2013-07-11 19:13:00,
2013-07-11 15:25:00,83.0,74.0,-100.00,WSW,255,1.0,1.0,73,0.00,,,-99.99,,2013-07-11 19:25:00,
2013-07-11 16:26:00,83.0,73.0,-100.00,SW,235,1.0,7.0,71,0.00,,,-99.99,,2013-07-11 20:26:00,
2013-07-11 16:39:00,83.0,73.0,-100.00,West,280,1.0,6.0,71,0.00,,,-99.99,,2013-07-11 20:39:00,
2013-07-11 16:47:00,82.0,73.0,-100.00,SW,230,0.0,4.0,73,0.00,,,-99.99,,2013-07-11 20:47:00,
2013-07-11 16:54:00,82.0,73.0,-100.00,West,265,2.0,4.0,75,0.00,,,-99.99,,2013-07-11 20:54:00,
2013-07-11 17:05:00,76.0,70.0,-100.00,North,355,4.0,11.0,81,0.00,,,-99.99,,2013-07-11 21:05:00,
2013-07-11 17:25:00,74.0,70.0,-100.00,East,95,3.0,11.0,88,2.49,,,-99.99,,2013-07-11 21:25:00,
2013-07-11 17:36:00,72.0,70.0,-100.00,NE,50,2.0,7.0,93,0.07,,,-99.99,,2013-07-11 21:36:00,
2013-07-11 18:17:00,74.0,72.0,-100.00,NNW,340,1.0,3.0,95,0.00,,,-99.99,,2013-07-11 22:17:00,
2013-07-11 18:26:00,74.0,72.0,-100.00,East,95,1.0,4.0,94,0.00,,,-99.99,,2013-07-11 22:26:00,
2013-07-11 19:26:00,75.0,73.0,-100.00,NW,305,1.0,2.0,93,0.00,,,-99.99,,2013-07-11 23:26:00,
2013-07-11 19:56:00,75.0,73.0,-100.00,West,275,1.0,2.0,94,0.00,,,-99.99,,2013-07-11 23:56:00,
2013-07-11 20:05:00,75.0,74.0,-100.00,WSW,240,0.0,1.0,95,0.00,,,-99.99,,2013-07-12 00:05:00,
2013-07-11 21:46:00,74.0,73.0,-100.00,SSW,205,0.0,1.0,98,0.00,,,-99.99,,2013-07-12 01:46:00,
2013-07-11 22:08:00,74.0,73.0,-100.00,NNE,15,1.0,2.0,98,0.00,,,-99.99,,2013-07-12 02:08:00,
2013-07-11 22:17:00,74.0,73.0,-100.00,North,0,1.0,2.0,98,0.00,,,-99.99,,2013-07-12 02:17:00,
2013-07-11 23:14:00,71.0,71.0,-100.00,NE,45,1.0,1.0,98,0.00,,,-99.99,,2013-07-12 03:14:00,
2013-07-11 23:46:00,70.0,70.0,-100.00,NE,35,1.0,4.0,98,0.00,,,-99.99,,2013-07-12 03:46:00,